www.pogodaiklimat.ru

Погода и климат >> Архив погоды >> Иран >> Сафиабад


ПОГОДА в Сафиабаде

  • Прогноз погоды в Сафиабаде
  • Монитор погоды в Сафиабаде

АРХИВ ПОГОДЫ в Сафиабаде

Время (UTC), дата Ветер
(напр.,м/с)
 
Видим.   Явления Облачность Т
(С)
Тd
(С)
f
(%)
Тe
(С)
Тes
(С)
Комфортность P
(гПа)
Po
(гПа)
Тmin
(С)
Tmax
(С)
R
(мм)
R24
(мм)
S
(см)
09 9.07 штиль 0 10 км ясно +42.9 +6.1 11 +40 +69 опасность
солнечного
удара
994.8 985.8
12 9.07 Ю 3 10 км ясно +44.6 +2.7 8 +41 +51 опасность
перегрева
992.9 983.8
15 9.07 ЮЗ 4 10 км ясно +41.6 +5.7 11 +39 +39 очень
жарко
992.4 983.3 +45.1
18 9.07 З 4 10 км ясно +35.6 +11.8 24 +35 +35 очень
жарко
994.1 985.1
21 9.07 СЗ 2 10 км ясно +31.0 +13.1 34 +32 +32 жарко 994.1 985.1
00 10.07 Ю 2 10 км ясно +26.1 +14.9 50 +29 +29 жарко 993.2 984.2
03 10.07 штиль 0 10 км ясно +25.8 +15.1 52 +29 +30 душно 993.5 984.4 +24.4
06 10.07 штиль 0 10 км ясно +35.4 +15.7 31 +37 +56 опасность
солнечного
удара
993.6 984.6
09 10.07 ЮВ 2 10 км ясно +41.1 +14.5 21 +42 +63 опасность
перегрева
992.6 983.6
12 10.07 штиль 0 10 км ясно +45.4 +5.9 9 +43 +58 опасность
перегрева
990.9 981.9
15 10.07 штиль 0 10 км ясно +43.0 +9.5 14 +41 +42 опасность
перегрева
990.6 981.6 +46.8
18 10.07 штиль 0 10 км ясно +31.9 +16.6 40 +35 +35 очень
душно
992.5 983.4
21 10.07 штиль 0 10 км ясно +28.6 +16.1 47 +32 +32 душно 992.3 983.2
00 11.07 штиль 0 10 км ясно +26.4 +15.1 50 +29 +29 жарко 992.0 983.0
03 11.07 штиль 0 10 км ясно +24.9 +16.2 58 +28 +30 жарко 993.3 984.3 +24.6
06 11.07 штиль 0 10 км ясно +35.6 +17.9 35 +39 +58 опасность
солнечного
удара
994.3 985.3
09 11.07 ЮВ 3 10 км ясно +40.7 +14.0 21 +41 +59 опасность
перегрева
994.6 985.5
12 11.07 штиль 0 10 км ясно +46.1 +7.3 10 +44 +59 опасность
перегрева
992.6 983.6
15 11.07 штиль 0 10 км ясно +45.0 +9.4 12 +43 +44 опасность
перегрева
992.8 983.8 +47.2
18 11.07 З 2 10 км ясно +36.5 +10.3 20 +35 +35 очень
жарко
995.3 986.3
21 11.07 штиль 0 10 км ясно +31.2 +12.4 32 +32 +32 жарко 995.6 986.6
00 12.07 штиль 0 10 км ясно +26.7 +14.2 46 +29 +29 жарко 995.1 986.1
03 12.07 штиль 0 10 км ясно +29.0 +13.9 40 +31 +33 жарко 996.2 987.2 +25.4
06 12.07 В 1 10 км ясно +38.1 +13.6 23 +38 +54 опасность
солнечного
удара
995.8 986.8
09 12.07 В 2 10 км ясно +46.0 +6.1 9 +43 +65 опасность
перегрева
995.0 986.0
12 12.07 штиль 0 10 км ясно +48.0 +0.1 5 +44 +60 опасность
перегрева
993.9 985.0
15 12.07 штиль 0 10 км ясно +46.0 +7.2 10 +44 +44 опасность
перегрева
993.4 984.4 +48.1
18 12.07 В 1 10 км ясно +35.0 +9.7 21 +34 +34 очень
жарко
995.2 986.2
21 12.07 В 2 10 км ясно +31.9 +8.1 23 +31 +31 жарко 995.1 986.2
00 13.07 ЮВ 1 10 км ясно +27.6 +10.5 34 +28 +28 жарко 995.1 986.1
03 13.07 штиль 0 10 км ясно +27.2 +14.6 46 +30 +31 душно 995.8 986.8 +26.3
06 13.07 штиль 0 10 км ясно +38.4 +10.5 19 +37 +56 опасность
солнечного
удара
996.3 987.3
09 13.07 СВ 1 10 км ясно +45.3 +5.9 10 +43 +68 опасность
перегрева
995.5 986.5
12 13.07 СВ 1 10 км ясно +47.4 -1.1 5 +43 +57 опасность
перегрева
994.4 985.4
15 13.07 З 4 10 км ясно +44.2 +2.5 8 +41 +41 опасность
перегрева
994.3 985.2 +48.6
18 13.07 З 6 7000 м пыльный позёмок ясно +37.3 +5.8 14 +35 +35 очень
жарко
996.0 987.0
21 13.07 СЗ 3 10 км ясно +33.4 +6.6 19 +31 +31 жарко 996.7 987.7
00 14.07 С 1 10 км ясно +29.7 +8.4 26 +29 +29 жарко 996.4 987.4
03 14.07 штиль 0 10 км ясно +24.3 +13.5 51 +27 +28 жарко 997.5 988.4 +23.9
06 14.07 В 2 10 км ясно +33.2 +11.8 27 +33 +47 жарко 998.5 989.4
09 14.07 В 1 10 км ясно +38.3 +10.8 19 +37 +62 опасность
солнечного
удара
998.1 989.1
12 14.07 В 1 10 км ясно +42.3 +10.5 15 +41 +54 опасность
перегрева
996.6 987.6
15 14.07 С 2 10 км ясно +40.1 +10.3 17 +39 +39 очень
жарко
996.2 987.1 +42.8
18 14.07 СВ 1 10 км ясно +32.3 +12.5 30 +33 +33 жарко 997.0 987.9
21 14.07 штиль 0 10 км ясно +28.0 +13.4 41 +30 +30 жарко 997.3 988.2
00 15.07 штиль 0 10 км ясно +24.4 +15.0 56 +27 +27 жарко 996.5 987.4
03 15.07 штиль 0 10 км ясно +26.0 +14.3 48 +28 +30 жарко 996.9 987.8 +24.2
06 15.07 штиль 0 10 км ясно +38.7 +10.5 18 +37 +56 опасность
солнечного
удара
997.2 988.1
09 15.07 штиль 0 10 км ясно +43.1 +7.7 12 +41 +70 опасность
перегрева
996.4 987.3
12 15.07 В 1 10 км ясно +45.6 +2.3 7 +42 +55 опасность
перегрева
994.9 985.8
15 15.07 штиль 0 10 км ясно +43.8 +12.3 16 +43 +44 опасность
перегрева
994.0 985.0 +46.3
18 15.07 В 1 10 км ясно +34.0 +10.0 23 +33 +33 жарко 994.8 985.8
21 15.07 штиль 0 10 км 4/0
[Ac trans]
+29.9 +12.6 35 +31 +31 жарко 994.4 985.4
00 16.07 штиль 0 10 км 4/0
[Ac trans]
+30.2 +10.9 30 +30 +30 жарко 993.0 984.0
03 16.07 штиль 0 10 км 6/4 1200 м
[Sc Ac trans]
+26.6 +15.5 51 +30 +30 душно 994.2 985.2 +26.5

 

Местоположение метеостанции Сафиабад (Иран): широта 32.27 долгота 48.42 высота над уровнем моря 83 м.

В архиве по умолчанию представлена погода в Сафиабаде за последнюю неделю. Архивные данные за месяц целиком и за предыдущие месяцы, начиная с января 2011 года, Вы можете получить, выбрав интересующий диапазон дат из раскрывающегося списка и нажав кнопку "Ввод!".


*Определитесь, кто Вы:
робот инопланетянин человек

Внимание! Время в таблицах - всемирное. Для получения местного времени необходимо прибавить поправку, которая равна 3.5 ч.

Смотрите также архив погоды в соседних городах и на ближайших метеорологических станциях:

Погода в Месджеде-Солеймане (Иран) (86 км)
Погода в Ахвазе (Иран) (107 км)
Погода в Амаре (Ирак) (127 км)
Погода в Хорремабаде (Иран) (135 км)
Погода в Али Аль-Гарби (Ирак) (161 км)
Погода в Элигудерзе (Иран) (172 км)
Погода в Басре (Ирак) (199 км)
Погода в Басре аэропорт (Ирак) (204 км)
Погода в Омидийе (Иран) (205 км)
Погода в Абадане (Иран) (212 км)

Пояснения к столбцам:

Ветер - указаны скорость ветра в м/с - средняя за 10 мин, порывы в срок и между сроками (в фигурных скобках) и направление, откуда дует ветер: С - северный, СВ - северо-восточный, В - восточный, ЮВ - юго-восточный, Ю - южный, ЮЗ - юго-западный, З - западный, СЗ - северо-западный.
Видимость - горизонтальная дальность видимости в метрах или километрах. При видимости от 1 до 10 км при отсутствии осадков обычно наблюдается дымка, при ухудшении видимости до 1 км и менее - туман. В сухую погоду видимость может ухудшаться дымом, пылью или мглою.
Явления - указаны атмосферные явления, наблюдавшиеся в срок или в последний час перед сроком; фигурными скобками обозначены явления, наблюдавшиеся между сроками (за 1-3 часа до срока); квадратными скобками обозначены град или гололедные отложения с указанием их диаметра в мм.
Облачность - указаны через наклонную черту общая и нижняя облачность в баллах и высота нижней границы облаков в метрах; квадратными скобками обозначены формы облаков: Ci - перистые, Cs - перисто-слоистые, Cc - перисто-кучевые, Ac - высококучевые, As - высокослоистые, Sc - слоисто-кучевые, Ns - слоисто-дождевые, Cu - кучевые, Cb - кучево-дождевые. Подробнее классификацию облаков см. в Атласе облаков (PDF).
T - Температура воздуха - температура, измеренная на высоте 2 м над землей.
Td - Температура точки росы - температура, при понижении до которой содержащийся в воздухе водяной пар достигнет насыщения.
f - Относительная влажность воздуха - влажноcть воздуха, измеренная на высоте 2 м над землей.
Te - Эффективная температура - температура, которую ощущает одетый по сезону человек в тени. Характеристика душности погоды. При расчете учитывается влияние влажности воздуха и скорости ветра на теплоощущения человека.
Tes - Эффективная температура на солнце - температура, которую ощущает человек, с поправкой на солнечный нагрев. Характеристика знойности погоды. Зависит от высоты солнца над горизонтом, облачности и скорости ветра. Ночью, в пасмурную погоду, а также при ветре 12 м/с и более поправка равна нулю.
P - Атмосферное давление - приведенное к уровню моря атмосферное давление.
Po - Атмосферное давление - измеренное на уровне метеостанции атмосферное давление.
Tmin - Минимальная температура - минимум температуры воздуха на высоте 2 м над землей.
Tmax - Максимальная температура - максимум температуры воздуха на высоте 2 м над землей.
R - Количество осадков - Количество выпавших осадков за период времени, мм. При наведении курсора мыши на число - период времени, за который выпало указанное количество осадков.
R24 - Количество осадков - Количество выпавших осадков за 24 часа, мм.
S - Снежный покров - Высота снежного покрова, см. При наведении курсора мыши на число - состояние снежного покрова и степень покрытия местности в баллах.